Weather History for Mobile Downtown, AL

Change the Weather History Date:

Sunday, February 3, 2013

  Actual Average Record
Temperature  
Mean Temperature 54 °F -  
Max Temperature 66 °F 58 °F 69 °F (1997)
Min Temperature 41 °F 41 °F 30 °F (2009)
Degree Days  
Heating Degree Days 12    
Growing Degree Days 4 (Base 50)    
Moisture  
Dew Point 42 °F    
Average Humidity 69    
Maximum Humidity 100    
Minimum Humidity 26    
Precipitation  
Precipitation 0.00 in - - ()
Sea Level Pressure  
Sea Level Pressure 30.20 in    
Wind  
Wind Speed 6 mph (WNW)    
Max Wind Speed 12 mph    
Max Gust Speed -    
Visibility 10 miles    
Events      
Averages and records for this station are not official NWS values.
T = Trace of Precipitation, MM = Missing Value Source: NWS Daily Summary

Daily Weather History Graph

Daily Weather History Graph

Search for Another Location

Airport:

Trip Planner

Search our weather history database for the weather conditions in past years. The results will help you decide how hot, cold, wet, or windy it might be!

Date:

Astronomy

Feb. 03, 2013 Rise Set
Actual Time 6:42 AM CST 5:30 PM CST
Civil Twilight 6:17 AM CST 5:55 PM CST
Nautical Twilight 5:48 AM CST 6:24 PM CST
Astronomical Twilight 5:19 AM CST 6:52 PM CST
Moon 12:08 AM CST (2/3) 11:09 AM CST (2/3)
Length of Visible Light 11h 38m
Length of Day
10h 48m
Waning Gibbous, 48% of the Moon is Illuminated
Feb 3
Waning Gibbous
Feb 10
New
Feb 17
First Quarter
Feb 25
Full
Mar 4
Last Quarter

Hourly Weather History & Observations

Time (CST) Temp. Windchill Dew Point Humidity Pressure Visibility Wind Dir Wind Speed Gust Speed Precip Events Conditions
12:53 AM 55.0 °F - 51.1 °F 86% 30.22 in 10.0 mi NW 9.2 mph - N/A   Overcast
1:53 AM 53.1 °F - 51.1 °F 93% 30.22 in 10.0 mi NW 6.9 mph - N/A   Mostly Cloudy
2:53 AM 52.0 °F - 48.9 °F 89% 30.22 in 10.0 mi NNW 6.9 mph - N/A   Mostly Cloudy
3:53 AM 50.0 °F - 46.0 °F 86% 30.22 in 10.0 mi North 5.8 mph - N/A   Clear
4:53 AM 48.9 °F - 44.1 °F 83% 30.22 in 10.0 mi North 4.6 mph - N/A   Partly Cloudy
5:53 AM 41.0 °F 39.0 °F 41.0 °F 100% 30.24 in 10.0 mi NW 3.5 mph - N/A   Clear
6:53 AM 42.1 °F 39.2 °F 41.0 °F 96% 30.27 in 10.0 mi NW 4.6 mph - N/A   Clear
7:53 AM 48.9 °F - 46.0 °F 90% 30.28 in 10.0 mi NW 3.5 mph - N/A   Clear
8:53 AM 53.1 °F - 46.0 °F 77% 30.28 in 10.0 mi NE 3.5 mph - N/A   Clear
9:53 AM 55.9 °F - 37.9 °F 51% 30.28 in 10.0 mi Calm Calm - N/A   Clear
10:53 AM 57.9 °F - 36.0 °F 44% 30.27 in 10.0 mi SE 6.9 mph - N/A   Clear
11:53 AM 60.1 °F - 34.0 °F 38% 30.24 in 10.0 mi ESE 5.8 mph - N/A   Clear
12:53 PM 61.0 °F - 41.0 °F 48% 30.19 in 10.0 mi SE 9.2 mph - N/A   Clear
1:53 PM 62.1 °F - 42.1 °F 48% 30.18 in 10.0 mi SSE 11.5 mph - N/A   Clear
2:53 PM 61.0 °F - 44.1 °F 54% 30.16 in 10.0 mi SE 3.5 mph - N/A   Clear
3:53 PM 66.9 °F - 30.9 °F 26% 30.15 in 10.0 mi NW 11.5 mph - N/A   Clear
4:53 PM 63.0 °F - 30.0 °F 29% 30.15 in 10.0 mi NW 9.2 mph - N/A   Scattered Clouds
5:53 PM 57.9 °F - 42.1 °F 56% 30.15 in 10.0 mi SSW 5.8 mph - N/A   Clear
6:53 PM 54.0 °F - 44.1 °F 69% 30.16 in 10.0 mi SW 4.6 mph - N/A   Clear
7:53 PM 54.0 °F - 44.1 °F 69% 30.16 in 10.0 mi WSW 5.8 mph - N/A   Clear
8:53 PM 52.0 °F - 45.0 °F 77% 30.16 in 10.0 mi WSW 4.6 mph - N/A   Clear
9:53 PM 50.0 °F - 45.0 °F 83% 30.17 in 10.0 mi West 4.6 mph - N/A   Clear
10:53 PM 48.0 °F - 45.0 °F 89% 30.17 in 10.0 mi WNW 4.6 mph - N/A   Clear
11:53 PM 46.9 °F - 42.1 °F 83% 30.15 in 10.0 mi NNW 6.9 mph - N/A   Clear